Location: Newark
(38.4667°N, 106.2667°E)
Time: 12:40:43
(UTC+00:00)

N. Korean satellite - Visible Passes

Search period start: 04 April 2020 00:00
Search period end: 14 April 2020 00:00
Orbit: 454 x 507 km, 97.2° (Epoch: 04 April)

Date Brightness Start Highest point End Pass type
(mag) Time Alt. Az. Time Alt. Az. Time Alt. Az.
06 Apr 9.3 21:58:02 10° NE 22:00:45 22° E 22:03:28 10° SSE visible
07 Apr 10.3 21:34:39 10° E 21:34:58 10° E 21:35:17 10° E visible
10 Apr 9.6 21:49:16 10° NE 21:51:35 17° E 21:53:53 10° SE visible
